This demonstration page uses our WeatherBlox Daily Observations layout. Learn more.

36.17497, -115.13722

Hourly Observations for July 5, 2018

Temp ( °F °C ) Dew Point ( °F °C ) Humidity (%) Winds ( mph kmh ) Pressure ( in mb ) Visibility ( mi km ) Precip ( " mm )
12:53 am 00:53 Clear 88 31.1 33 0.6 14 14 Calm 29.94 1014 10 16.09344 0 0
1:53 am 01:53 Clear 87 30.6 34 1.1 15 15 Calm 29.91 1013 10 16.09344 0 0
2:53 am 02:53 Clear 85 29.4 36 2.2 17 17 WSW 7 11 29.94 1014 10 16.09344 0 0
3:53 am 03:53 Clear 81 27.2 35 1.7 19 19 Calm 29.94 1014 10 16.09344 0 0
4:53 am 04:53 Clear 79 26.1 36 2.2 21 21 N 6 9 29.97 1015 10 16.09344 0 0
5:53 am 05:53 Sunny 78 25.6 36 2.2 22 22 WNW 3 6 30 1016 10 16.09344 0 0
6:53 am 06:53 Sunny 82 27.8 37 2.8 20 20 Calm 30 1016 10 16.09344 0 0
7:53 am 07:53 Sunny 85 29.4 35 1.7 17 17 NW 3 6 30.03 1017 10 16.09344 0 0
8:53 am 08:53 Sunny 90 32.2 35 1.7 14 14 Calm 30.03 1017 10 16.09344 0 0
9:53 am 09:53 Sunny 93 33.9 36 2.2 13 13 SSE 5 7 30.03 1017 10 16.09344 0 0
10:53 am 10:53 Sunny 96 35.6 35 1.7 12 12 N 3 6 30.03 1017 10 16.09344 0 0
11:53 am 11:53 Sunny 99 37.2 35 1.7 11 11 SSE 10 17 30 1016 10 16.09344 0 0
12:53 pm 12:53 Sunny 101 38.3 32 0 9 9 S 13 20 30 1016 10 16.09344 0 0
1:53 pm 13:53 Sunny 102 38.9 33 0.6 9 9 ESE 14 22 29.97 1015 10 16.09344 0 0
2:53 pm 14:53 Sunny 104 40 31 -0.6 8 8 SSE 14 22 29.97 1015 10 16.09344 0 0
3:53 pm 15:53 Sunny 106 41.1 27 -2.8 6 6 SSE 8 13 29.94 1014 10 16.09344 0 0
4:53 pm 16:53 Sunny 106 41.1 25 -3.9 6 6 S 7 11 29.91 1013 10 16.09344 0 0
5:53 pm 17:53 Sunny 106 41.1 21 -6.1 5 5 WSW 12 19 29.91 1013 10 16.09344 0 0
6:53 pm 18:53 Sunny 105 40.6 21 -6.1 5 5 S 13 20 29.91 1013 10 16.09344 0 0
7:53 pm 19:53 Sunny 103 39.4 18 -7.8 5 5 W 8 13 29.91 1013 10 16.09344 0 0
8:53 pm 20:53 Clear 99 37.2 20 -6.7 6 6 W 6 9 29.94 1014 10 16.09344 0 0
9:53 pm 21:53 Clear 94 34.4 24 -4.4 8 8 N 7 11 29.94 1014 10 16.09344 0 0
10:53 pm 22:53 Clear 94 34.4 16 -8.9 6 6 NNW 9 15 29.97 1015 10 16.09344 0 0
11:53 pm 23:53 Clear 91 32.8 17 -8.3 6 6 NNW 9 15 29.97 1015 10 16.09344 0 0

Powered by AerisWeather